EN

Hourly Weather Belper

Today, 24 July, Saturday

Time Temperature Precipitation Wind Pressure Humidity
00:00 +13°C° 0 mm 3 mps 750 mmHg 87%
01:00 +13°C° 0 mm 4 mps 749 mmHg 88%
02:00 +13°C° 0 mm 4 mps 749 mmHg 90%
03:00 +13°C° 0 mm 5 mps 748 mmHg 91%
04:00 +13°C° 0 mm 5 mps 748 mmHg 90%
05:00 +13°C° 0 mm 5 mps 748 mmHg 88%
06:00 +13°C° 0 mm 5 mps 748 mmHg 86%
07:00 +14°C° 0 mm 5 mps 748 mmHg 81%
08:00 +16°C° 0 mm 6 mps 748 mmHg 76%
09:00 +17°C° 0 mm 6 mps 747 mmHg 71%
10:00 +17°C° 0 mm 6 mps 747 mmHg 68%
11:00 +19°C° 0 mm 6 mps 747 mmHg 66%
12:00 +20°C° 0 mm 5 mps 747 mmHg 63%
13:00 +20°C° 0 mm 5 mps 747 mmHg 63%
14:00 +20°C° 0 mm 5 mps 747 mmHg 62%
15:00 +21°C° 0 mm 5 mps 747 mmHg 62%
16:00 +20°C° 0 mm 5 mps 747 mmHg 65%
17:00 +19°C° 0 mm 4 mps 747 mmHg 68%
18:00 +19°C° 0 mm 4 mps 746 mmHg 71%
19:00 +18°C° 0 mm 4 mps 747 mmHg 76%
20:00 +16°C° 0 mm 3 mps 747 mmHg 81%
21:00 +14°C° 0 mm 3 mps 747 mmHg 86%
22:00 +14°C° 0 mm 3 mps 747 mmHg 88%
23:00 +13°C° 0 mm 3 mps 747 mmHg 90%

Tomorrow, 25 July, Sunday

Time Temperature Precipitation Wind Pressure Humidity
00:00 +13°C° 0 mm 3 mps 746 mmHg 93%
01:00 +12°C° 0 mm 3 mps 746 mmHg 93%
02:00 +12°C° 0 mm 3 mps 746 mmHg 94%
03:00 +12°C° 0 mm 3 mps 746 mmHg 94%
04:00 +13°C° 0 mm 3 mps 746 mmHg 93%
05:00 +13°C° 0 mm 3 mps 746 mmHg 91%
06:00 +13°C° 0 mm 3 mps 746 mmHg 89%
07:00 +14°C° 0 mm 3 mps 746 mmHg 84%
08:00 +16°C° 0 mm 3 mps 746 mmHg 78%
09:00 +18°C° 0 mm 3 mps 746 mmHg 73%
10:00 +19°C° 0 mm 3 mps 746 mmHg 68%
11:00 +20°C° 0 mm 3 mps 746 mmHg 63%
12:00 +22°C° 0 mm 3 mps 746 mmHg 57%
13:00 +23°C° 0 mm 2 mps 746 mmHg 55%
14:00 +24°C° 0 mm 2 mps 746 mmHg 53%
15:00 +25°C° 0 mm 2 mps 746 mmHg 50%
16:00 +24°C° 0 mm 2 mps 745 mmHg 53%
17:00 +24°C° 0 mm 2 mps 745 mmHg 55%
18:00 +24°C° 0 mm 1 mps 745 mmHg 57%
19:00 +21°C° 0 mm 2 mps 746 mmHg 63%
20:00 +20°C° 0 mm 2 mps 746 mmHg 68%
21:00 +18°C° 0 mm 2 mps 746 mmHg 74%
22:00 +17°C° 0 mm 2 mps 746 mmHg 79%
23:00 +18°C° 0 mm 1 mps 746 mmHg 84%

Day after tomorrow, 26 July, Monday

Time Temperature Precipitation Wind Pressure Humidity
00:00 +16°C° 0 mm 1 mps 746 mmHg 88%
01:00 +15°C° 0 mm 1 mps 746 mmHg 89%
02:00 +15°C° 0 mm 1 mps 746 mmHg 90%
03:00 +15°C° 0 mm 1 mps 746 mmHg 91%
04:00 +15°C° 0 mm 1 mps 746 mmHg 89%
05:00 +16°C° 0 mm 1 mps 746 mmHg 86%
06:00 +16°C° 0 mm 1 mps 746 mmHg 84%
07:00 +19°C° 0 mm 1 mps 746 mmHg 77%
08:00 +19°C° 0 mm 2 mps 746 mmHg 71%
09:00 +21°C° 0 mm 2 mps 746 mmHg 64%
10:00 +23°C° 0 mm 2 mps 746 mmHg 59%
11:00 +24°C° 0 mm 3 mps 746 mmHg 55%
12:00 +25°C° 0 mm 3 mps 746 mmHg 51%
13:00 +25°C° 0 mm 3 mps 746 mmHg 51%
14:00 +25°C° 0 mm 3 mps 745 mmHg 51%
15:00 +25°C° 0 mm 3 mps 745 mmHg 50%
16:00 +25°C° 0 mm 3 mps 745 mmHg 54%
17:00 +24°C° 0 mm 2 mps 745 mmHg 57%
18:00 +24°C° 0 mm 2 mps 745 mmHg 60%
19:00 +21°C° 0.1 mm 2 mps 745 mmHg 64%
20:00 +19°C° 0.1 mm 2 mps 745 mmHg 68%
21:00 +17°C° 0.1 mm 2 mps 746 mmHg 72%
22:00 +17°C° 0.1 mm 2 mps 746 mmHg 74%
23:00 +16°C° 0.1 mm 2 mps 746 mmHg 77%

27 July, Tuesday

Time Temperature Precipitation Wind Pressure Humidity
00:00 +15°C° 0.1 mm 2 mps 746 mmHg 79%
01:00 +15°C° 0 mm 1 mps 746 mmHg 81%
02:00 +15°C° 0 mm 1 mps 745 mmHg 83%
03:00 +14°C° 0 mm 1 mps 745 mmHg 84%
04:00 +15°C° 0 mm 1 mps 745 mmHg 84%
05:00 +15°C° 0 mm 1 mps 746 mmHg 83%
06:00 +16°C° 0 mm 1 mps 746 mmHg 83%
07:00 +19°C° 0 mm 1 mps 746 mmHg 76%
08:00 +20°C° 0 mm 1 mps 746 mmHg 70%
09:00 +21°C° 0 mm 2 mps 746 mmHg 63%
10:00 +23°C° 0.1 mm 2 mps 746 mmHg 59%
11:00 +24°C° 0.1 mm 2 mps 746 mmHg 54%
12:00 +25°C° 0.1 mm 2 mps 745 mmHg 49%
13:00 +25°C° 0.1 mm 2 mps 745 mmHg 49%
14:00 +25°C° 0.1 mm 2 mps 745 mmHg 49%
15:00 +25°C° 0.1 mm 2 mps 745 mmHg 49%
16:00 +24°C° 0.3 mm 2 mps 745 mmHg 58%
17:00 +21°C° 0.3 mm 2 mps 745 mmHg 67%
18:00 +20°C° 0.3 mm 2 mps 744 mmHg 76%
19:00 +19°C° 0.4 mm 2 mps 744 mmHg 79%
20:00 +19°C° 0.4 mm 1 mps 744 mmHg 82%
21:00 +19°C° 0.4 mm 1 mps 744 mmHg 85%
22:00 +18°C° 1.3 mm 1 mps 744 mmHg 89%
23:00 +18°C° 1.3 mm 1 mps 744 mmHg 92%

28 July, Wednesday

Time Temperature Precipitation Wind Pressure Humidity
00:00 +16°C° 1.3 mm 2 mps 743 mmHg 96%
01:00 +16°C° 0.6 mm 2 mps 743 mmHg 96%
02:00 +15°C° 0.6 mm 2 mps 743 mmHg 96%
03:00 +15°C° 0.6 mm 2 mps 742 mmHg 96%
04:00 +14°C° 0.1 mm 3 mps 742 mmHg 95%
05:00 +14°C° 0.1 mm 3 mps 742 mmHg 94%
06:00 +14°C° 0.1 mm 3 mps 742 mmHg 92%
07:00 +15°C° 0 mm 4 mps 742 mmHg 85%
08:00 +16°C° 0 mm 5 mps 742 mmHg 78%
09:00 +17°C° 0 mm 6 mps 742 mmHg 71%
10:00 +17°C° 0.2 mm 6 mps 742 mmHg 69%
11:00 +19°C° 0.2 mm 6 mps 742 mmHg 68%
12:00 +18°C° 0.2 mm 7 mps 742 mmHg 66%
13:00 +18°C° 0.6 mm 7 mps 742 mmHg 66%
14:00 +18°C° 0.6 mm 7 mps 742 mmHg 66%
15:00 +18°C° 0.6 mm 8 mps 741 mmHg 67%
16:00 +17°C° 1 mm 7 mps 741 mmHg 70%
17:00 +16°C° 1 mm 7 mps 741 mmHg 74%
18:00 +15°C° 1 mm 7 mps 741 mmHg 77%
19:00 +14°C° 0.2 mm 6 mps 742 mmHg 81%
20:00 +13°C° 0.2 mm 6 mps 742 mmHg 85%
21:00 +11°C° 0.2 mm 6 mps 742 mmHg 88%
22:00 +10°C° 0 mm 6 mps 742 mmHg 89%
23:00 +10°C° 0 mm 6 mps 742 mmHg 89%

29 July, Thursday

Time Temperature Precipitation Wind Pressure Humidity
00:00 +10°C° 0 mm 5 mps 742 mmHg 90%
01:00 +10°C° 0 mm 5 mps 741 mmHg 91%
02:00 +10°C° 0 mm 5 mps 741 mmHg 91%
03:00 +10°C° 0 mm 5 mps 741 mmHg 92%
04:00 +10°C° 0.2 mm 5 mps 741 mmHg 92%
05:00 +10°C° 0.2 mm 5 mps 740 mmHg 92%
06:00 +12°C° 0.2 mm 5 mps 740 mmHg 92%
07:00 +11°C° 0.2 mm 6 mps 740 mmHg 86%
08:00 +13°C° 0.2 mm 6 mps 740 mmHg 81%
09:00 +14°C° 0.2 mm 6 mps 740 mmHg 75%
10:00 +15°C° 0.1 mm 6 mps 740 mmHg 67%
11:00 +17°C° 0.1 mm 6 mps 740 mmHg 59%
12:00 +19°C° 0.1 mm 5 mps 740 mmHg 51%
13:00 +19°C° 0 mm 5 mps 740 mmHg 54%
14:00 +17°C° 0 mm 5 mps 740 mmHg 57%
15:00 +18°C° 0 mm 4 mps 740 mmHg 60%
16:00 +17°C° 0 mm 5 mps 740 mmHg 61%
17:00 +17°C° 0 mm 5 mps 741 mmHg 62%
18:00 +17°C° 0 mm 6 mps 741 mmHg 63%
19:00 +16°C° 0 mm 6 mps 741 mmHg 67%
20:00 +15°C° 0 mm 6 mps 742 mmHg 70%
21:00 +14°C° 0 mm 6 mps 742 mmHg 74%
22:00 +14°C° 0 mm 6 mps 743 mmHg 77%
23:00 +14°C° 0 mm 6 mps 743 mmHg 81%
Show more